Flag for U.S.A. Weather past 2 weeks in Port St. Lucie, Florida, U.S.A.

Now
82 °F

Passing clouds.


Feels Like: 89 °F
Forecast: 76 / 89 °F
Wind: 7 mph from South

Location: Witham Field Airport

Current Time: Jul 24, 2014 at 9:39:17 AM

Latest Report: Jul 24, 2014 at 8:47 AM


Visibility: 10 mi

Pressure: 30.07 "Hg

Humidity: 79%

Dew point: 75 °F

Location of Port St. LucieLocation

Historic Weather in Port St. Lucie — Graph

°F

Port St. Lucie temperature yesterday

Maximum temperature yesterday: 88 °F (at 3:47 PM)
Minimum temperature yesterday: 75 °F (at 12:15 AM)
Average temperature yesterday: 82 °F

Past Weeks' High & Low Weather Summary

 TemperatureHumidityPressure
High91 °F (Jul 11, 10:47 AM)100% (Jul 16, 11:55 PM)30.17 "Hg (Jul 16, 11:55 PM)
Low73 °F (Jul 13, 6:47 AM)52% (Jul 10, 2:47 PM)27.24 "Hg (Jul 24, 7:47 AM)
Average80 °F82%30.05 "Hg
* Reported Jul 9 8:47 AM — Jul 24 7:47 AM, Port St. Lucie, Weather by CustomWeather, © 2014

Note: Actual official high and low records may vary slightly from our data, if they occured in-between our weather recording intervals... More about our weather records

Advertising

Port St. Lucie weather history for previous 24 hours

 ConditionsComfort  
Time TempWeatherWind HumidityBarometerVisibility
7:47 AM
Jul 24
N/APassing clouds.3 mphN/A27.24 "Hg10 mi
6:50 AM77 °FPassing clouds.No wind94%30.05 "Hg10 mi
6:15 AM77 °FClear.3 mph89%30.05 "Hg10 mi
5:55 AM77 °FPassing clouds.No wind94%30.04 "Hg10 mi
5:35 AM77 °FPassing clouds.No wind94%30.04 "Hg10 mi
5:15 AM77 °FPassing clouds.No wind89%30.04 "Hg10 mi
4:55 AM77 °FPartly cloudy.No wind94%30.04 "Hg10 mi
4:35 AM77 °FPassing clouds.No wind89%30.04 "Hg10 mi
4:15 AM77 °FPassing clouds.No wind94%30.04 "Hg10 mi
3:55 AM77 °FClear.No wind94%30.04 "Hg10 mi
3:35 AM77 °FPassing clouds.No wind94%30.04 "Hg10 mi
3:15 AM77 °FPassing clouds.No wind94%30.04 "Hg10 mi
2:55 AM77 °FClear.No wind94%30.04 "Hg10 mi
2:35 AM77 °FClear.No wind89%30.04 "Hg10 mi
2:15 AM77 °FClear.No wind94%30.04 "Hg10 mi
1:35 AM79 °FClear.No wind89%30.05 "Hg10 mi
1:15 AM79 °FClear.No wind89%30.06 "Hg10 mi
12:55 AM79 °FClear.No wind89%30.06 "Hg10 mi
12:35 AM79 °FClear.3 mph89%30.06 "Hg10 mi
12:15 AM77 °FClear.No wind89%30.06 "Hg10 mi
11:55 PM
Jul 23
79 °FClear.3 mph84%30.06 "Hg10 mi
11:35 PM79 °FClear.No wind84%30.07 "Hg10 mi
11:15 PM81 °FClear.5 mph79%30.07 "Hg10 mi
10:55 PM81 °FClear.3 mph79%30.07 "Hg10 mi
10:35 PM81 °FClear.7 mph79%30.06 "Hg10 mi
10:15 PM81 °FClear.5 mph84%30.06 "Hg10 mi
9:55 PM81 °FClear.5 mph84%30.06 "Hg10 mi
9:35 PM81 °FClear.6 mph84%30.05 "Hg10 mi
8:55 PM81 °FSunny.7 mph79%30.05 "Hg10 mi
8:35 PM82 °FSunny.7 mph74%30.05 "Hg10 mi
8:15 PM82 °FSunny.6 mph74%30.05 "Hg10 mi
6:47 PM86 °FScattered clouds.14 mph66%30.03 "Hg7 mi
5:47 PM84 °FBroken clouds.12 mph74%30.04 "Hg7 mi
4:47 PM86 °FBroken clouds.7 mph66%30.05 "Hg7 mi
3:47 PM88 °FBroken clouds.8 mph62%30.07 "Hg7 mi
2:47 PM86 °FBroken clouds.8 mph66%30.08 "Hg7 mi
1:47 PM84 °FBroken clouds.9 mph74%30.10 "Hg7 mi
12:47 PM81 °FThundershowers. Broken clouds.12 mph84%30.11 "Hg7 mi
11:47 AM84 °FThundershowers. Broken clouds.8 mph74%30.10 "Hg7 mi
10:47 AM84 °FBroken clouds.5 mph74%30.10 "Hg10 mi
9:47 AM82 °FBroken clouds.7 mph84%30.10 "Hg10 mi
Weather by CustomWeather, © 2014

See weather overviewHow to use our weather pages